Location: Tel Aviv-Yafo
(32.0853°N, 34.7818°E)
Time: 05:40:44
(UTC+02:00)

ARIANE 6 FM1 Upper Stage - Visible Passes

Search period start: 18 January 2026 00:00
Search period end: 28 January 2026 00:00
Orbit: 522 x 610 km, 62.0° (Epoch: 17 January)

Date Brightness Start Highest point End Pass type
(mag) Time Alt. Az. Time Alt. Az. Time Alt. Az.
18 Jan 5.1 04:04:53 19° E 04:04:53 19° E 04:06:27 10° ESE visible
18 Jan 4.1 05:40:56 17° W 05:41:44 18° WSW 05:44:34 10° SSW visible
18 Jan 4.5 17:56:18 10° SE 17:58:13 13° ESE 17:58:30 13° ESE visible
18 Jan 5.0 19:32:57 10° SW 19:34:35 21° WSW 19:34:35 21° WSW visible
19 Jan 5.2 04:05:58 17° ESE 04:05:58 17° ESE 04:07:04 10° SE visible
19 Jan 4.7 05:42:02 11° WSW 05:42:02 11° WSW 05:43:05 10° SW visible
19 Jan 4.0 17:55:10 10° SSE 17:58:17 21° ESE 17:59:38 18° E visible
19 Jan 5.0 19:33:36 10° WSW 19:35:42 22° W 19:35:42 22° W visible
20 Jan 5.5 04:07:07 12° SE 04:07:07 12° SE 04:07:24 10° SE visible
20 Jan 3.4 17:54:39 10° S 17:58:22 33° ESE 18:00:42 18° ENE visible
20 Jan 5.2 19:34:32 10° W 19:36:47 18° WNW 19:36:47 18° WNW visible
21 Jan 2.8 17:54:27 10° SSW 17:58:29 54° ESE 18:01:42 15° NE visible
21 Jan 5.5 19:35:59 10° WNW 19:37:45 12° NW 19:37:45 12° NW visible
22 Jan 2.6 17:54:29 10° SSW 17:58:38 90° ESE 18:02:36 11° NNE visible
23 Jan 3.2 17:54:45 10° SW 17:58:48 55° WNW 18:02:46 10° NNE visible
24 Jan 4.1 17:55:14 10° WSW 17:59:01 34° NW 18:02:44 10° NNE visible
25 Jan 4.8 17:55:58 10° WSW 17:59:16 23° NW 18:02:30 10° N visible
26 Jan 5.2 17:57:02 10° W 17:59:33 16° NW 18:02:01 10° N visible
27 Jan 5.5 17:59:05 10° WNW 17:59:53 10° NW 18:00:41 10° NW visible
